Weather History for Texarkana, AR

Change the Weather History Date:

Monday, December 3, 2012

  Actual Average Record
Temperature  
Mean Temperature 69 °F 48 °F  
Max Temperature 74 °F 58 °F 82 °F (2005)
Min Temperature 64 °F 38 °F 12 °F (1929)
Degree Days  
Heating Degree Days 0 17  
Month to date heating degree days 0 50  
Since 1 July heating degree days 446 508  
Cooling Degree Days 4 0  
Month to date cooling degree days 13 0  
Year to date cooling degree days 2804 2204  
Growing Degree Days 18 (Base 50)    
Moisture  
Dew Point 64 °F    
Average Humidity 84    
Maximum Humidity 100    
Minimum Humidity 68    
Precipitation  
Precipitation T in 0.19 in 2.78 in (1973)
Month to date precipitation T 0.57  
Year to date precipitation 27.61 45.17  
Snow  
Snow 0.00 in - - ()
Month to date snowfall 0.0  
Since 1 July snowfall 0.0  
Snow Depth 0.00 in    
Sea Level Pressure  
Sea Level Pressure 30.03 in    
Wind  
Wind Speed 9 mph (South)    
Max Wind Speed 17 mph    
Max Gust Speed 24 mph    
Visibility 9 miles    
Events Rain    
T = Trace of Precipitation, MM = Missing Value Source: NWS Daily Summary

Daily Weather History Graph

Daily Weather History Graph

Search for Another Location

Airport:

Trip Planner

Search our weather history database for the weather conditions in past years. The results will help you decide how hot, cold, wet, or windy it might be!

Date:

Astronomy

Dec. 03, 2012 Rise Set
Actual Time 7:04 AM CST 5:07 PM CST
Civil Twilight 6:36 AM CST 5:35 PM CST
Nautical Twilight 6:06 AM CST 6:05 PM CST
Astronomical Twilight 5:35 AM CST 6:35 PM CST
Moon 9:47 PM CST (12/3) 10:34 AM CST (12/3)
Length of Visible Light 10h 58m
Length of Day
10h 03m
Waning Gibbous, 78% of the Moon is Illuminated
Dec 3
Waning Gibbous
Dec 6
Last Quarter
Dec 13
New
Dec 19
First Quarter
Dec 28
Full

Hourly Weather History & Observations

Time (CST) Temp. Dew Point Humidity Pressure Visibility Wind Dir Wind Speed Gust Speed Precip Events Conditions
12:53 AM 64.9 °F 62.1 °F 90% 30.07 in 10.0 mi South 8.1 mph - N/A   Clear
1:51 AM 64.4 °F 62.6 °F 94% 30.08 in 10.0 mi South 11.5 mph - N/A   Mostly Cloudy
1:53 AM 64.9 °F 63.0 °F 93% 30.07 in 10.0 mi South 10.4 mph - N/A   Mostly Cloudy
2:53 AM 64.9 °F 64.0 °F 97% 30.07 in 10.0 mi South 8.1 mph - N/A   Overcast
3:53 AM 64.9 °F 64.0 °F 97% 30.07 in 10.0 mi South 10.4 mph - N/A   Overcast
4:53 AM 66.0 °F 63.0 °F 90% 30.06 in 10.0 mi South 10.4 mph 20.7 mph N/A   Overcast
5:53 AM 64.9 °F 63.0 °F 93% 30.06 in 10.0 mi South 9.2 mph - N/A   Overcast
6:53 AM 66.0 °F 63.0 °F 90% 30.07 in 10.0 mi South 9.2 mph 18.4 mph N/A   Overcast
7:21 AM 66.2 °F 64.4 °F 94% 30.08 in 8.0 mi South 10.4 mph - N/A   Overcast
7:53 AM 66.0 °F 64.0 °F 93% 30.07 in 7.0 mi South 11.5 mph - N/A   Overcast
9:51 AM 69.8 °F 64.4 °F 83% 30.09 in 10.0 mi South 15.0 mph 19.6 mph N/A   Overcast
9:53 AM 69.1 °F 64.9 °F 87% 30.08 in 10.0 mi South 11.5 mph 19.6 mph N/A   Overcast
10:53 AM 69.1 °F 64.0 °F 84% 30.06 in 10.0 mi South 10.4 mph - N/A   Overcast
11:51 AM 73.4 °F 64.4 °F 73% 30.05 in 10.0 mi South 10.4 mph - N/A   Mostly Cloudy
11:53 AM 73.9 °F 64.0 °F 71% 30.05 in 10.0 mi South 11.5 mph - N/A   Mostly Cloudy
12:53 PM 73.9 °F 62.1 °F 66% 30.03 in 10.0 mi South 12.7 mph - N/A   Overcast
1:53 PM 72.0 °F 63.0 °F 73% 30.01 in 10.0 mi South 9.2 mph - N/A   Overcast
2:12 PM 69.8 °F 62.6 °F 78% 30.02 in 10.0 mi South 12.7 mph - N/A   Overcast
2:26 PM 69.8 °F 64.4 °F 83% 30.02 in 5.0 mi South 8.1 mph - 0.00 in Rain Light Rain
2:53 PM 68.0 °F 64.9 °F 90% 30.00 in 6.0 mi Variable 5.8 mph - 0.00 in   Overcast
3:28 PM 68.0 °F 64.4 °F 88% 30.01 in 6.0 mi South 6.9 mph - N/A   Overcast
3:53 PM 66.9 °F 66.0 °F 97% 29.99 in 7.0 mi SSE 8.1 mph - N/A   Overcast
4:17 PM 66.2 °F 64.4 °F 94% 29.99 in 10.0 mi SSE 11.5 mph - N/A   Mostly Cloudy
4:39 PM 68.0 °F 64.4 °F 88% 30.00 in 10.0 mi SSE 8.1 mph - N/A   Scattered Clouds
4:53 PM 68.0 °F 64.9 °F 90% 29.99 in 10.0 mi South 6.9 mph - N/A   Scattered Clouds
5:53 PM 64.9 °F 64.0 °F 97% 29.99 in 10.0 mi SSE 5.8 mph - N/A   Clear
6:53 PM 66.0 °F 64.0 °F 93% 29.99 in 10.0 mi SE 8.1 mph - N/A   Clear
7:53 PM 66.0 °F 64.9 °F 96% 29.99 in 10.0 mi SSE 13.8 mph - N/A   Clear
8:15 PM 66.2 °F 66.2 °F 100% 30.00 in 10.0 mi SSE 12.7 mph - N/A   Partly Cloudy
8:31 PM 66.2 °F 66.2 °F 100% 30.00 in 10.0 mi South 10.4 mph 18.4 mph N/A   Mostly Cloudy
8:53 PM 66.9 °F 66.0 °F 97% 29.99 in 10.0 mi SSE 13.8 mph - N/A   Overcast
9:37 PM 68.0 °F 66.2 °F 94% 30.03 in 10.0 mi South 9.2 mph - N/A   Overcast
9:53 PM 68.0 °F 66.0 °F 93% 30.02 in 10.0 mi SSE 6.9 mph - N/A   Overcast
10:53 PM 68.0 °F 66.0 °F 93% 30.04 in 10.0 mi South 6.9 mph - N/A   Overcast
11:53 PM 68.0 °F 66.0 °F 93% 30.04 in 10.0 mi South 4.6 mph - N/A   Overcast